Location: Caicarita
(10.0502°N, 67.6875°W)
Time: 11:51:25
(UTC+00:00)

Cosmos 2218 Rocket - Pass Details

Date: 05 August 2024
Orbit: 956 x 1005 km, 82.9° (Epoch: 17 September)

Event Time Altitude Azimuth Distance (km) Brightness Sun altitude
Rises 23:30:10 0° 176° (S) 3,626 6.8 -9.7°
Reaches altitude 10° 23:32:41 10° 173° (S) 2,683 6.1 -10.3°
Maximum altitude 23:38:44 64° 92° (E) 1,061 4.0 -11.7°
Drops below altitude 10° 23:44:50 10° 12° (NNE) 2,705 6.4 -13.1°
Sets 23:47:22 0° 10° (N) 3,659 7.1 -13.7°
